Погода в Черлаке

Погода в Черлаке : погода сейчас, прогноз погоды и архив. Всё, что Вы хотите узнать о погоде в Черлаке!

Хотите узнать прогноз погоды в Черлаке? Тогда Вам сюда: Погода в Черлаке

Поиск расширенной информации на нашем сайте:

Другие новости

Новости СМИ2

Главная страница сайта

Новости сайта

03.07.2017

Напоминаем, что на нашем специализированном сайте Метеоцентр.Азия вы можете получить высокодетализированные автоматические прогнозы погоды по пунктам России, СНГ и мира в авиационном формате (включающие направление и скорость ветра, видимость, явления погоды, количество и форму облачности, нижнюю и верхнюю границу облачности).


Погода в Черлаке - сегодня

Время (UTC), дата Ветер
(°,м/с) 
Видим.   Явления Облачность Т
(°С)
Тd
(°С)
f(%) Тe
(°С)
Pmin
(гПа)
dP
(гПа)
Po
(мм)
O2
(г/м3)
Тmin Tmax R s Состояние
почвы
18 13.02.18 080 (В) 10 км    4/0 верхняя 
[Ci fib]
-18.7 -20.5 86 -24  1022.8  -1.2  755  328           
21 13.02.18 080 (В) 10 км    4/0 верхняя 
[Ci fib]
-17.9 -19.8 85 -24  1020.8  -1.9  754  327           
00 14.02.18 090 (В) 10 км    8/0 верхняя 
[Cs]
-16.2 -18.1 85 -21  1019.1  -1.6  753  324           
03 14.02.18 090 (В) 20000 м    10/0 средняя 
[As trans]
-14.9 -17 84 -20  1017.9  -1  752  322  -19.1      24  равномерный
сухой снег
100% 
12 14.02.18 080 (В) 1000 м  снег  10/10 300 м 
[Ns]
-10.3 -11.4 92 -12  1014.6  750  315           
15 14.02.18 тихо ()   4000 м  слаб. снег  10/10 600 м 
[Sc]
-10.1 -11.1 92 -10  1014.8  0.2  750  315    -9.6     
18 14.02.18 210 (ЮЗ) 4000 м  слаб. снег  10/10 300 м 
[St]
-16.3 -17.7 89 -19  1015.8  0.6  750  323           
21 14.02.18 220 (ЮЗ) 4000 м  слаб. снег  10/10 100 м 
[St]
-20.3 -22.2 85 -23  1017  0.9  751  329           
03 15.02.18 200 (Ю) 1000 м  слаб. снег [диам. изморози 7 мм]  10/10 300 м 
[St]
-23.1 -25.3 82 -26  1018  0.6  752  333  -23.4    0.3  28  равномерный
сухой снег
100% 
09 15.02.18 210 (ЮЗ) 20000 м  [диам. изморози 0 мм]  4/0 верхняя 
[Cs]
-21.3 -23.4 83 -24  1020.7  1.6  754  331           
12 15.02.18 210 (ЮЗ) 20000 м    6/0 средняя, верхняя 
[As trans|Ci fib]
-22.2 -24.4 82 -23  1023.3  2.4  756  333           
18 15.02.18 тихо ()   4000 м  слаб. снег  10/0 средняя 
[Ac As]
-22.9 -25.1 82 -23  1027.2  1.6  758  335           
21 15.02.18 250 (З) 4000 м  слаб. снег  10/0 средняя 
[Ac As]
-21.2 -23.3 83 -22  1028.5  1.4  759  333           
00 16.02.18 тихо ()   4000 м  слаб. снег  10/0 средняя 
[Ac As]
-19.7 -21.6 85 -20  1030  1.5  761  332           
03 16.02.18 310 (СЗ) 4000 м  дымка{снег}  10/0 средняя 
[As trans]
-20.5 -22.4 85 -21  1032.3  2.2  762  334  -25.1      28  равномерный
сухой снег
100% 
12 16.02.18 310 (СЗ) 20000 м  {снег}  6/0 верхняя 
[Ci fib]
-17.1 -19.1 84 -17  1037.3  1.7  766  331           
15 16.02.18 010 (С) 10 км    ясно 
-20 -21.8 85 -20  1039  1.5  767  335    -14  0.0     
18 16.02.18 тихо ()   10 км    ясно 
-22.9 -25.1 82 -23  1040  0.8  768  340           
21 16.02.18 тихо ()   10 км    ясно 
-25 -27.4 80 -25  1040.5  0.4  768  343           
00 17.02.18 тихо ()   10 км    6/0 средняя 
[As trans]
-26.2 -28.8 79 -26  1041.3  0.7  769  344           
03 17.02.18 тихо ()   0500 м  переохл. туман [диам. изморози 2 мм]  8/0 средняя 
[As trans]
-28 -30.8 77 -28  1042.2  0.9  769  347  -28.7      28  равномерный
сухой снег
100% 
12 17.02.18 220 (ЮЗ) 4000 м  дымка  10/0 средняя, верхняя 
[Ac As|Cs]
-22.5 -24.7 82 -25  1041.8  -0.2  769  340           
15 17.02.18 200 (Ю) 4000 м  дымка [диам. изморози 2 мм]  10/0 верхняя 
[Cs]
-24.1 -26.4 81 -27  1041.9  769  342    -20.1       
21 17.02.18 210 (ЮЗ) 0500 м  переохл. туман [диам. изморози 10 мм]  ?/?  
-27.2 -29.9 78 -28  1041.4  -0.4  769  346           
03 18.02.18 180 (Ю) 4000 м  слаб. снег [диам. изморози 18 мм]  10/10 300 м 
[St]
-23.6 -25.9 81 -24  1039.9  -0.2  768  340  -27.4    0.3  29  равномерный
сухой снег
100% 
Время (UTC), дата Ветер
(°,м/с) 
Видим.   Явления Облачность Т
(°С)
Тd
(°С)
f(%) Тe
(°С)
Pmin
(гПа)
dP
(гПа)
Po
(мм)
O2
(г/м3)
Тmin Tmax R s Состояние
почвы

Для получения пояснительной информации подведите курсор к названию столбца.

ПОГОДА в Черлаке - архив

Всё, что Вы хотите узнать о погоде в Черлаке - удобно и подробно!

Выберите нужную дату (начиная с 1 января 2015* года) и нажмите кнопку "Найти".
Будут отображены архивные сводки погоды по пункту Черлак, начиная с указанной даты.


Отображать данные в формате CSV (для использования в таблицах Excel)


Внимание! Наш архив погоды предназначен исключительно для личного некоммерческого использования в познавательных целях. Если Вам необходимы официальные справки о состоянии погоды (для производственных, юридических, коммерческих и т.п. целей), обращайтесь в органы Росгидромета.

*Примечание: данная дата относится к архиву по метеостанциям СССР (Россия, СНГ, Балтия).
Архив по метеостанциям Зарубежной Европы и Азии (кроме Китая) хранится 10 дней, по другим регионам земного шара (Китай, Африка, Америка, Австралия, Океания) - 1 день.

Черлак - район местоположения метеостанции


Название, широта, долгота, высота метеостанции:
Черлак 54.2°ш. 74.8°д. 115 м над ур. моря [Российская Федерация]

Дополнительная информация

В oтличие oт бoльшинства пoгoдных сайтoв мы публикуем пoдрoбную метеoинфoрмацию в детальнoм прoфессиoнальнoм фoрмате.

Характеристики температуры и влажнoсти вoздуха измеряются на высoте 2 м в тени вдали oт зданий и деревьев.
Скoрoсть ветра измеряется на высoте 10 м (на урoвне рoста челoвека скoрoсть ветра ниже в 1.5-2 раза). Если метеoстанция нахoдится в гoрoде или в лесу, тo скoрoсть ветра занижена на 2-4 м/с пo сравнению с oткрытым местoм. Скoрoсть ветра над акватoриями крупных рек и oзёр, а также на вершинах хoлмoв на 2-5 м/с выше, чем в oбычных услoвиях.
Атмoсфернoе давление в разных тoчках местнoсти мoжет значительнo oтличаться oт давления на метеoстанции, в зависимoсти oт услoвий рельефа (при пoдъёме на 10 м давление пoнижается примернo на 1 мм рт.ст.).